SL-16 DEB, 22361

Orbit data source: Space-Track

SL-16 DEB, 22361 is space debris in LEO originally from a launch on Fri, 25 Dec 1992 UTC launched from the Tyuratam Missile And Space Complex (TTMTR). Debris objects in space refer to the collection of defunct objects orbiting the Earth. Examples of debris include non-operational satellites, rocket bodies, and fragments generated from explosions, collisions, or faulty payload assembly.

Loading next visibility...
Identifier
22361, 1992-093BA
Orbit
LEO
Country
Flag of CISCIS
Related business
Manufacturer
Unknown
Mission
Spacecraft
Bus & Motor
Unknown
Mass
Unknown
Launch date (UTC)
1992-12-25 (33 years ago)
Launch vehicle
Unknown
Launch site
Tyuratam Missile And Space Complex (TTMTR)
Object type
Payload
Rocket body
Debris
Shape & HBR
Unknown shape, 0.3 m
Radar Cross Section
Medium (>0.1 m² and <1 m²)

Expand to show TLE details & history
Last TLE update: 9 hours ago

TLE from 9 hours ago
0 SL-16 DEB
1 22361U 92093BA  26127.08801752  .00000162  00000-0  17133-3 0  9993
2 22361  70.7671 358.6831 0183677 358.0959 116.5316 13.81401586677054
Epoch: 2026-05-07T02:06Z
TLE epoch observation values (Epoch: 2026-05-07T02:06:44.713Z)
Latitude
57.78541°
Longitude
-111.3675°
Altitude
1,030.25 km
Speed
7.311 km/s
True Right ascension
09h 41m 01s
True Declination
57° 38' 09"
Sunlit
Object was in daylight at epoch
Visualization orbit readout
Latitude
Unknown
Longitude
Unknown
Altitude
Unknown
Speed
Unknown
Apparent Right ascension
Unknown
Apparent Declination
Unknown
Sunlit
N/A
Visualization observer readout
Local Sidereal Time
19:08:50
Azimuth
Unknown
Elevation
Unknown
Doppler factor
Unknown
Orbital elements
Apogee altitude
1,091.627 km
Perigee altitude
822.172 km
Semi-major axis
7,335.036 km
Eccentricity
0.01837
Inclination
70.7671°
RAAN
358.6831°
Arg. of periapsis
358.0959°
True anomaly
118.39527°
Mean anomaly
116.5316°
Eccentric anomaly
117.46538°
Mean motion
3.45493 °/min
Orbital period
104.2 mins
BSTAR
0.00017133
Loading maneuver chart data...
Computing Atmospheric mass density...
Loading historical data...
Loading historical data...
Loading historical data...
Loading historical data...
Loading historical data...
Loading historical data...
Loading historical data...

Documentation

Showing up to 5 results
|